Home   Weather   Bairnsdale   Past weeks

Flag for Australia Past Weather in Bairnsdale, Victoria, Australia — Yesterday and Last 2 Weeks

Now
62 °F

Mild.


Feels Like: 62 °F
Forecast: 54 / 64 °F
Wind: 10 mph from West

Location: Bairnsdale Airport

Current Time: Apr 28, 2017 at 12:37:21 pm

Latest Report: Apr 28, 2017 at 11:00 am


Visibility: N/A

Pressure: 30.19 "Hg

Humidity: 57%

Dew Point: 47 °F

Location of BairnsdaleLocation

Past Weather in Bairnsdale — Graph

°F

Bairnsdale Temperature Yesterday

Maximum temperature yesterday: 58 °F (at 2:00 pm)
Minimum temperature yesterday: 45 °F (at 12:00 am)
Average temperature yesterday: 50 °F

High & Low Weather Summary for the Past Weeks

 TemperatureHumidityPressure
High81 °F (Apr 20, 2:00 pm)99% (Apr 24, 8:00 am)30.39 "Hg (Apr 24, 8:00 am)
Low44 °F (Apr 17, 6:00 am)34% (Apr 20, 2:00 pm)29.60 "Hg (Apr 26, 5:00 am)
Average58 °F80%30.14 "Hg
* Reported Apr 13 11:00 am — Apr 28 11:00 am, Bairnsdale, Weather by CustomWeather, © 2017

Note: Actual official high and low records may vary slightly from our data, if they occured in-between our weather recording intervals... More about our weather records

Advertising

Bairnsdale Weather History for the Previous 24 Hours

Scroll right to see more
 ConditionsComfort  
Time TempWeatherWind HumidityBarometerVisibility
11:00 am
Fri, Apr 28
62 °FMild.10 mph57%30.19 "HgN/A
9:00 am54 °FOvercast.9 mph70%30.20 "HgN/A
8:00 am50 °FCool.9 mph77%30.19 "HgN/A
6:00 am48 °FOvercast.7 mph81%30.17 "HgN/A
5:00 am48 °FCool.7 mph80%30.16 "HgN/A
3:00 am48 °FPassing clouds.8 mph82%30.16 "HgN/A
2:00 am48 °FCool.8 mph81%30.17 "HgN/A
12:00 am51 °FOvercast.8 mph74%30.18 "HgN/A
11:00 pm
Thu, Apr 27
51 °FCool.8 mph72%30.18 "HgN/A
9:00 pm50 °FOvercast.8 mph80%30.19 "HgN/A
8:00 pm49 °FCool.8 mph84%30.19 "HgN/A
6:00 pm50 °FOvercast.8 mph84%30.17 "HgN/A
5:00 pm52 °FCool.13 mph79%30.16 "HgN/A
3:00 pm57 °FPartly sunny.12 mph52%30.14 "HgN/A
2:00 pm58 °FRefreshingly cool.15 mph50%30.14 "HgN/A
12:00 pm55 °FOvercast.13 mph59%30.15 "HgN/A
Weather by CustomWeather, © 2017

See weather overviewHow to use our weather pages